Regional Weather Roundup
Issued by NWS Glasgow, MT

Home | Current Version | Previous Version | Text Only | Print | Product List | Glossary On
Versions: 1 2 3 4 5 6 7 8 9 10 11 12 13 14 15 16 17 18 19 20 21 22 23 24 25 26 27 28 29 30 31 32 33 34 35 36 37 38 39 40 41 42 43 44 45 46 47 48 49 50
000
ASUS45 KGGW 271115
RWRGGW
HOURLY REGIONAL WEATHER ROUNDUP FOR NORTHEAST MONTANA
NATIONAL WEATHER SERVICE GLASGOW MONTANA
500 AM MDT TUE JUN 27 2017

NOTE: "FAIR" INDICATES FEW OR NO CLOUDS BELOW 12,000 FEET WITH NO
SIGNIFICANT WEATHER AND/OR OBSTRUCTIONS TO VISISBILITY.

NORTHEAST MONTANA


CITY           SKY/WX    TMP DP  RH WIND       PRES   REMARKS
GLASGOW        CLOUDY    63  39  41 SE8       29.61S
PLENTYWOOD       N/A     62  40  44 SE12G20     N/A
WOLF POINT     CLOUDY    66  40  38 NE6       29.62F
JORDAN           N/A     58  46  64 NW7       29.65R
WINNETT          N/A     67  41  38 SW3G12      N/A
SIDNEY         CLOUDY    64  42  44 SE10      29.67F
GLENDIVE       PTCLDY    62  40  44 SE7       29.67F
MALTA            N/A     57  49  74 SW1         N/A

FORT PECK REPORTS


CITY           SKY/WX    TMP DP  RH WIND       PRES   REMARKS
FORT PECK        N/A     65  45  48 E12         N/A
THE PINES        N/A     68  39  34 CALM        N/A

SOUTHEAST MONTANA


CITY           SKY/WX    TMP DP  RH WIND       PRES   REMARKS
BILLINGS       CLOUDY    72  44  36 NW8       29.75F
MILES CITY     PTCLDY    67  40  37 S14       29.63F
BAKER          PTCLDY    57  38  48 SE14      29.74F
LIVINGSTON     CLEAR     61  49  64 W7        29.85F

CENTRAL MONTANA


CITY           SKY/WX    TMP DP  RH WIND       PRES   REMARKS
HAVRE          CLOUDY    63  52  67 W5        29.65S
LEWISTOWN      MOCLDY    61  47  59 S7        29.76F
GREAT FALLS    MOCLDY    65  50  58 SW14      29.76R
CUT BANK       CLOUDY    61  49  64 W14       29.72R
HELENA         PTCLDY    61  54  77 W5        29.84R
BUTTE          CLOUDY    53  49  86 CALM      29.96S
BOZEMAN        CLOUDY    55  52  89 SE6       29.87F

WESTERN MONTANA


CITY           SKY/WX    TMP DP  RH WIND       PRES   REMARKS
MISSOULA       CLOUDY    63  54  72 VRB6      29.87R
KALISPELL      NOT AVBL

NORTH DAKOTA


CITY           SKY/WX    TMP DP  RH WIND       PRES   REMARKS
WILLISTON      CLOUDY    67  42  40 S10       29.70F
DICKINSON      PTCLDY    57  35  43 S20       29.76S
MINOT          CLOUDY    63  37  38 S21G31    29.78F
BISMARCK       CLOUDY    57  40  52 SE13      29.86F

SOUTHERN SASKATCHEWAN


CITY           SKY/WX    TMP DP  RH WIND       PRES   REMARKS
REGINA         PTCLDY    57  45  62 SE15G21   29.61F
MOOSE JAW      PTCLDY    59  45  58 SW12      29.57F
ESTEVAN        MOCLDY    61  43  51 S17G24    29.67F
SWIFT CURRENT  CLEAR     61  48  63 SW13      29.56S




USA.gov is the U.S. government's official web portal to all federal, state and local government web resources and services.